{"data":{"norad_id":60490,"epoch":"2026-05-25T04:41:15.838080Z","epoch_age_seconds":51986,"freshness":"FRESH","line1":"1 60490U 24149Y   26145.19532220  .00013358  00000+0  37091-3 0  9993","line2":"2 60490  97.3778 227.5023 0003061  27.6658 332.4748 15.37012724 98669","mean_motion":15.37012724,"eccentricity":0.0003061,"inclination_deg":97.3778,"raan_deg":227.5023,"arg_perigee_deg":27.6658,"mean_anomaly_deg":332.4748,"bstar":0.00037091,"rev_number":9866,"period_min":93.688228959645,"perigee_km":452.85706881272,"apogee_km":457.04028386377,"semimajor_km":6833.0856763382,"source":"CELESTRAK","updated_at":"2026-05-25T13:38:13.303717Z"}}